Tracking 29489 objects as of 9-Sep-2024
HD Live streaming from Space Station
objects crossing your sky now

STARLINK-30327

Track STARLINK-30327 now!
10-day predictions
STARLINK-30327 is classified as:


NORAD ID: 57707
Int'l Code: 2023-129K
Perigee: 565.3 km
Apogee: 567.4 km
Inclination: 43.0 °
Period: 95.8 minutes
Semi major axis: 6937 km
RCS: Unknown
Launch date: August 27, 2023
Source: United States (US)
Launch site: AIR FORCE EASTERN TEST RANGE (AFETR)
Your satellite tracking list
Your tracking list is empty




NASA's NSSDC Master Catalog

Two Line Element Set (TLE):
1 57707U 23129K   24253.18798273  .00032829  00000-0  24365-2 0  9990
2 57707  43.0050 197.3495 0001482 230.0692 130.0020 15.02496540 58459
Source of the keplerian elements: AFSPC